Location: Ab? ar R?sh Ba?r?
(24.1861°N, 32.8847°E)
Time: 23:34:19
(UTC+00:00)

Cosmos 839 Rocket - Pass Details

Date: 24 October 2021
Orbit: 964 x 2088 km, 65.9° (Epoch: 05 December)

Event Time Altitude Azimuth Distance (km) Brightness Sun altitude
Rises 17:05:16 0° 337° (NNW) 4,010 7.5 -25.9°
Reaches altitude 10° 17:08:07 10° 339° (NNW) 2,933 6.7 -26.5°
Maximum altitude 17:14:47 80° 66° (ENE) 1,004 3.8 -28.0°
Enters shadow 17:15:13 75° 113° (ESE) 1,015 3.8 -28.1°
